CQ0XPA-11 Weather Reports


time (UTC)temp
C
wind
direction
speed
KPH
gust
KPH
rain 1hr
cm
rain 24hr
cm
rain mn
cm
humidity
%
barometer
mb
20180419171734 25 135 3.2 8.0 0.00 0.00 0.00 48 1009.0
20180419171532 25 0 3.2 8.0 0.00 0.00 0.00 47 1009.0
20180419171330 25 135 0.0 6.4 0.00 0.00 0.00 48 1009.0
20180419171128 25 135 4.8 6.4 0.00 0.00 0.00 47 1009.1
20180419170926 25 157 6.4 6.4 0.00 0.00 0.00 48 1009.0
20180419170724 25 135 3.2 8.0 0.00 0.00 0.00 47 1009.1
20180419170522 25 180 4.8 8.0 0.00 0.00 0.00 46 1009.0
20180419170320 25 157 4.8 6.4 0.00 0.00 0.00 46 1009.1
20180419170117 25 112 6.4 8.0 0.00 0.00 0.00 46 1009.1
20180419165916 25 90 1.6 8.0 0.00 0.00 0.00 46 1009.1
20180419165713 25 157 6.4 8.0 0.00 0.00 0.00 46 1009.1
20180419165512 25 90 1.6 8.0 0.00 0.00 0.00 46 1009.1
20180419165309 25 180 4.8 9.7 0.00 0.00 0.00 46 1009.2
20180419165108 25 180 6.4 9.7 0.00 0.00 0.00 46 1009.2
20180419164906 25 135 3.2 9.7 0.00 0.00 0.00 47 1009.2
20180419164703 25 157 1.6 9.7 0.00 0.00 0.00 46 1009.2
20180419164501 25 0 3.2 8.0 0.00 0.00 0.00 46 1009.1
20180419164259 25 33 6.4 11.3 0.00 0.00 0.00 46 1009.2
20180419164057 25 45 6.4 11.3 0.00 0.00 0.00 45 1009.1
20180419163855 25 112 8.0 9.7 0.00 0.00 0.00 45 1009.1
20180419163653 26 180 4.8 8.0 0.00 0.00 0.00 46 1009.2
20180419163451 26 45 1.6 6.4 0.00 0.00 0.00 46 1009.2
20180419163249 26 146 3.2 9.7 0.00 0.00 0.00 45 1009.2
20180419163047 26 157 8.0 9.7 0.00 0.00 0.00 46 1009.2
20180419162844 26 146 1.6 6.4 0.00 0.00 0.00 48 1009.2
20180419162643 26 180 0.0 6.4 0.00 0.00 0.00 47 1009.2
20180419162440 26 90 1.6 8.0 0.00 0.00 0.00 47 1009.2
20180419162239 26 180 3.2 8.0 0.00 0.00 0.00 48 1009.2
20180419162036 26 135 6.4 9.7 0.00 0.00 0.00 47 1009.2
20180419161835 26 135 3.2 9.7 0.00 0.00 0.00 47 1009.1
20180419161632 26 0 9.7 9.7 0.00 0.00 0.00 45 1009.2
20180419161430 26 157 6.4 9.7 0.00 0.00 0.00 45 1009.2
20180419161228 26 135 4.8 9.7 0.00 0.00 0.00 46 1009.3
20180419161026 26 123 6.4 9.7 0.00 0.00 0.00 45 1009.2
20180419160824 26 180 6.4 8.0 0.00 0.00 0.00 45 1009.3
20180419160622 26 225 1.6 9.7 0.00 0.00 0.00 46 1009.4
20180419160420 26 180 3.2 9.7 0.00 0.00 0.00 45 1009.4
20180419160218 26 135 3.2 8.0 0.00 0.00 0.00 45 1009.4
20180419160015 26 180 8.0 11.3 0.00 0.00 0.00 44 1009.3
20180419155814 26 135 8.0 11.3 0.00 0.00 0.00 45 1009.3
20180419155611 26 67 6.4 12.9 0.00 0.00 0.00 45 1009.3
20180419155410 26 112 8.0 12.9 0.00 0.00 0.00 45 1009.4
20180419155207 26 157 9.7 9.7 0.00 0.00 0.00 45 1009.4
20180419155006 26 135 3.2 9.7 0.00 0.00 0.00 46 1009.5
20180419154803 26 157 4.8 9.7 0.00 0.00 0.00 45 1009.4
20180419154601 26 180 4.8 11.3 0.00 0.00 0.00 44 1009.5
20180419154359 26 135 4.8 11.3 0.00 0.00 0.00 44 1009.5
20180419154157 26 157 6.4 11.3 0.00 0.00 0.00 43 1009.6
20180419153955 26 135 8.0 11.3 0.00 0.00 0.00 43 1009.5
20180419153753 26 0 9.7 11.3 0.00 0.00 0.00 43 1009.6
20180419153551 26 180 9.7 9.7 0.00 0.00 0.00 43 1009.5
20180419153349 26 112 3.2 9.7 0.00 0.00 0.00 43 1009.5
20180419153146 26 90 3.2 12.9 0.00 0.00 0.00 43 1009.5
20180419152945 26 180 6.4 14.5 0.00 0.00 0.00 43 1009.6
20180419152742 26 180 12.9 14.5 0.00 0.00 0.00 43 1009.6
20180419152541 26 180 14.5 14.5 0.00 0.00 0.00 44 1009.6
20180419152338 26 135 6.4 11.3 0.00 0.00 0.00 43 1009.6
20180419152137 26 135 6.4 14.5 0.00 0.00 0.00 43 1009.6
20180419151934 26 135 12.9 14.5 0.00 0.00 0.00 42 1009.6
20180419151733 26 0 3.2 11.3 0.00 0.00 0.00 43 1009.7
20180419151531 26 157 6.4 14.5 0.00 0.00 0.00 43 1009.7
20180419151328 26 157 4.8 14.5 0.00 0.00 0.00 43 1009.7
20180419151126 26 180 14.5 14.5 0.00 0.00 0.00 42 1009.6
20180419150924 26 157 6.4 11.3 0.00 0.00 0.00 43 1009.6
20180419150722 26 157 4.8 12.9 0.00 0.00 0.00 43 1009.6
20180419150318 26 135 12.9 12.9 0.00 0.00 0.00 43 1009.7
20180419145913 26 315 4.8 11.3 0.00 0.00 0.00 44 1009.7
20180419144258 27 180 9.7 12.9 0.00 0.00 0.00 43 1009.9
20180419143854 27 180 8.0 9.7 0.00 0.00 0.00 42 1010.0
20180419143653 27 135 4.8 9.7 0.00 0.00 0.00 43 1009.9
20180419143450 27 0 3.2 8.0 0.00 0.00 0.00 43 1010.0
20180419143249 27 180 4.8 9.7 0.00 0.00 0.00 42 1010.1
20180419143044 27 157 9.7 9.7 0.00 0.00 0.00 41 1010.1
20180419142642 27 135 8.0 12.9 0.00 0.00 0.00 42 1010.1
20180419142440 27 135 6.4 8.0 0.00 0.00 0.00 43 1010.1
20180419142238 27 0 1.6 8.0 0.00 0.00 0.00 43 1010.1
20180419142036 27 33 1.6 8.0 0.00 0.00 0.00 44 1010.1
20180419141834 27 112 6.4 11.3 0.00 0.00 0.00 42 1010.1
20180419141632 27 112 3.2 11.3 0.00 0.00 0.00 43 1010.2
20180419141428 27 112 3.2 12.9 0.00 0.00 0.00 44 1010.3
20180419141226 27 135 8.0 12.9 0.00 0.00 0.00 43 1010.3
20180419141024 26 225 3.2 9.7 0.00 0.00 0.00 45 1010.2
20180419140822 26 157 6.4 12.9 0.00 0.00 0.00 43 1010.2
20180419140620 26 0 8.0 12.9 0.00 0.00 0.00 43 1010.3
20180419140418 26 180 8.0 12.9 0.00 0.00 0.00 42 1010.3
20180419140215 26 0 4.8 9.7 0.00 0.00 0.00 44 1010.3
20180419140014 26 135 6.4 12.9 0.00 0.00 0.00 43 1010.3
20180419135811 26 157 4.8 12.9 0.00 0.00 0.00 43 1010.4
20180419135610 26 0 3.2 14.5 0.00 0.00 0.00 41 1010.4
20180419135407 27 67 4.8 14.5 0.00 0.00 0.00 41 1010.4
20180419135003 27 180 8.0 11.3 0.00 0.00 0.00 43 1010.3
20180419134801 27 180 6.4 9.7 0.00 0.00 0.00 45 1010.4
20180419134559 27 348 3.2 8.0 0.00 0.00 0.00 46 1010.4
20180419134357 27 90 6.4 8.0 0.00 0.00 0.00 45 1010.4
20180419134155 27 135 4.8 8.0 0.00 0.00 0.00 46 1010.4
20180419133953 27 0 3.2 8.0 0.00 0.00 0.00 46 1010.4
20180419133751 27 0 3.2 9.7 0.00 0.00 0.00 46 1010.4
20180419133549 27 180 8.0 9.7 0.00 0.00 0.00 44 1010.5
20180419133346 27 315 3.2 14.5 0.00 0.00 0.00 46 1010.4
20180419133145 27 157 4.8 14.5 0.00 0.00 0.00 46 1010.5
20180419132942 27 0 3.2 11.3 0.00 0.00 0.00 47 1010.5
20180419132741 27 180 4.8 9.7 0.00 0.00 0.00 46 1010.6
20180419132538 27 168 6.4 9.7 0.00 0.00 0.00 46 1010.5
20180419132337 27 191 6.4 9.7 0.00 0.00 0.00 46 1010.6
20180419132134 27 135 3.2 8.0 0.00 0.00 0.00 48 1010.7
20180419131932 27 0 1.6 9.7 0.00 0.00 0.00 50 1010.7
20180419131730 27 180 4.8 9.7 0.00 0.00 0.00 47 1010.8
20180419131529 27 157 4.8 9.7 0.00 0.00 0.00 47 1010.8
20180419131326 27 180 9.7 9.7 0.00 0.00 0.00 46 1010.7
20180419131125 27 146 4.8 6.4 0.00 0.00 0.00 47 1010.8
20180419130922 27 0 1.6 6.4 0.00 0.00 0.00 48 1010.8
20180419130720 27 135 3.2 6.4 0.00 0.00 0.00 49 1010.8
20180419130518 27 303 3.2 9.7 0.00 0.00 0.00 48 1010.9
20180419130316 27 67 0.0 11.3 0.00 0.00 0.00 50 1010.9
20180419130114 27 180 1.6 11.3 0.00 0.00 0.00 49 1011.0
20180419125912 26 112 8.0 9.7 0.00 0.00 0.00 49 1010.8
20180419125709 26 90 6.4 9.7 0.00 0.00 0.00 50 1010.9
20180419125508 26 180 6.4 8.0 0.00 0.00 0.00 49 1010.9
20180419125305 26 90 1.6 6.4 0.00 0.00 0.00 51 1010.9
20180419125103 26 0 1.6 4.8 0.00 0.00 0.00 50 1011.0
20180419124901 26 123 1.6 4.8 0.00 0.00 0.00 50 1011.1
20180419124659 26 180 1.6 6.4 0.00 0.00 0.00 48 1011.1
20180419124457 26 348 3.2 11.3 0.00 0.00 0.00 49 1011.2
20180419124255 26 157 8.0 11.3 0.00 0.00 0.00 47 1011.2
20180419124053 26 78 6.4 9.7 0.00 0.00 0.00 50 1011.1
20180419123851 26 157 1.6 9.7 0.00 0.00 0.00 49 1011.2
20180419123649 26 180 1.6 9.7 0.00 0.00 0.00 51 1011.2
20180419123448 26 135 1.6 6.4 0.00 0.00 0.00 53 1011.3
20180419123244 26 0 3.2 8.0 0.00 0.00 0.00 53 1011.2
20180419123043 26 157 4.8 8.0 0.00 0.00 0.00 51 1011.2
20180419122841 26 135 1.6 6.4 0.00 0.00 0.00 53 1011.3
20180419122639 26 67 3.2 6.4 0.00 0.00 0.00 55 1011.3
20180419122436 26 157 4.8 6.4 0.00 0.00 0.00 54 1011.4
20180419122234 26 180 6.4 6.4 0.00 0.00 0.00 55 1011.4
20180419122032 26 135 1.6 4.8 0.00 0.00 0.00 56 1011.3
20180419121831 26 135 1.6 4.8 0.00 0.00 0.00 55 1011.3
20180419121628 26 270 4.8 6.4 0.00 0.00 0.00 54 1011.4
20180419121426 26 180 4.8 6.4 0.00 0.00 0.00 54 1011.4
20180419121224 25 67 1.6 6.4 0.00 0.00 0.00 56 1011.4
20180419121022 25 112 1.6 6.4 0.00 0.00 0.00 57 1011.5
20180419120820 25 180 6.4 6.4 0.00 0.00 0.00 54 1011.6
20180419120618 25 157 3.2 6.4 0.00 0.00 0.00 56 1011.5
20180419120415 25 90 6.4 6.4 0.00 0.00 0.00 57 1011.6
20180419120214 25 270 0.0 6.4 0.00 0.00 0.00 57 1011.6
20180419120011 25 0 1.6 6.4 0.00 0.00 0.00 57 1011.7
20180419115810 25 180 4.8 4.8 0.00 0.00 0.00 55 1011.8
20180419115607 25 135 3.2 4.8 0.00 0.00 0.00 57 1011.8
20180419115406 25 180 0.0 3.2 0.00 0.00 0.00 60 1011.7
20180419115203 25 0 3.2 6.4 0.00 0.00 0.00 59 1011.7
20180419115003 25 303 3.2 6.4 0.00 0.00 0.00 60 1011.8
20180419114759 25 191 0.0 3.2 0.00 0.00 0.00 62 1011.7
20180419114557 25 270 0.0 1.6 0.00 0.00 0.00 61 1011.8
20180419114355 24 270 0.0 3.2 0.00 0.00 0.00 61 1011.9
20180419114153 24 67 0.0 3.2 0.00 0.00 0.00 61 1011.9
20180419113951 23 67 3.2 4.8 0.00 0.00 0.00 62 1011.9
20180419113749 23 180 1.6 4.8 0.00 0.00 0.00 62 1012.0
20180419113546 23 0 1.6 6.4 0.00 0.00 0.00 63 1011.9
20180419113345 23 180 1.6 6.4 0.00 0.00 0.00 62 1012.1
20180419113142 23 303 4.8 8.0 0.00 0.00 0.00 61 1012.1
20180419112941 23 337 4.8 8.0 0.00 0.00 0.00 61 1012.0
20180419112738 23 303 4.8 6.4 0.00 0.00 0.00 62 1012.1
20180419112334 23 225 3.2 9.7 0.00 0.00 0.00 60 1012.0
20180419112132 24 337 6.4 9.7 0.00 0.00 0.00 59 1012.1
20180419111930 24 337 3.2 3.2 0.00 0.00 0.00 61 1012.2
20180419111728 24 202 1.6 4.8 0.00 0.00 0.00 61 1012.2
20180419111526 24 303 0.0 4.8 0.00 0.00 0.00 61 1012.2
20180419111324 24 303 3.2 4.8 0.00 0.00 0.00 61 1012.2
20180419110917 23 303 1.6 6.4 0.00 0.00 0.00 61 1012.3
20180419110714 23 180 3.2 6.4 0.00 0.00 0.00 61 1012.3
20180419110513 23 270 0.0 3.2 0.00 0.00 0.00 61 1012.2
20180419110310 23 180 0.0 3.2 0.00 0.00 0.00 62 1012.3
20180419110109 23 0 0.0 3.2 0.00 0.00 0.00 62 1012.3
20180419105906 23 67 1.6 6.4 0.00 0.00 0.00 62 1012.4
20180419105705 23 270 1.6 6.4 0.00 0.00 0.00 62 1012.3
20180419105502 23 337 1.6 3.2 0.00 0.00 0.00 62 1012.3
20180419105300 23 180 3.2 3.2 0.00 0.00 0.00 61 1012.3
20180419105058 23 157 0.0 6.4 0.00 0.00 0.00 61 1012.4
20180419104856 23 303 1.6 6.4 0.00 0.00 0.00 62 1012.4
20180419104654 23 180 3.2 3.2 0.00 0.00 0.00 62 1012.4
20180419104452 23 303 1.6 3.2 0.00 0.00 0.00 64 1012.4
20180419104250 23 315 0.0 3.2 0.00 0.00 0.00 65 1012.5
20180419104048 23 180 0.0 3.2 0.00 0.00 0.00 64 1012.5
20180419103846 23 67 0.0 3.2 0.00 0.00 0.00 65 1012.6
20180419103644 22 67 1.6 3.2 0.00 0.00 0.00 66 1012.6
20180419103441 22 67 0.0 3.2 0.00 0.00 0.00 66 1012.6
20180419103240 22 67 0.0 3.2 0.00 0.00 0.00 66 1012.6
20180419103037 22 337 0.0 4.8 0.00 0.00 0.00 66 1012.6
20180419102836 22 67 1.6 4.8 0.00 0.00 0.00 66 1012.5
20180419102633 22 270 1.6 3.2 0.00 0.00 0.00 66 1012.7
20180419102432 22 112 0.0 3.2 0.00 0.00 0.00 67 1012.7
20180419102229 21 180 3.2 3.2 0.00 0.00 0.00 65 1012.7
20180419102028 21 0 1.6 8.0 0.00 0.00 0.00 66 1012.7
20180419101825 21 90 3.2 8.0 0.00 0.00 0.00 66 1012.8
20180419101623 21 270 0.0 1.6 0.00 0.00 0.00 69 1012.7
20180419101421 21 135 1.6 1.6 0.00 0.00 0.00 69 1012.7
20180419101219 21 67 0.0 8.0 0.00 0.00 0.00 69 1012.7
20180419101017 21 90 0.0 8.0 0.00 0.00 0.00 68 1012.8
20180419100815 21 135 8.0 8.0 0.00 0.00 0.00 68 1012.9
20180419100612 20 135 3.2 3.2 0.00 0.00 0.00 68 1012.8
20180419100411 20 180 1.6 3.2 0.00 0.00 0.00 70 1012.8
20180419100208 20 112 3.2 4.8 0.00 0.00 0.00 70 1012.8
20180419100007 20 303 3.2 4.8 0.00 0.00 0.00 70 1012.9
20180419095400 19 67 1.6 4.8 0.00 0.00 0.00 73 1012.9
20180419094956 19 67 3.2 4.8 0.00 0.00 0.00 72 1012.9
20180419094754 19 67 0.0 8.0 0.00 0.00 0.00 72 1012.9
20180419094552 19 67 1.6 8.0 0.00 0.00 0.00 72 1012.9
20180419094350 19 270 1.6 4.8 0.00 0.00 0.00 73 1013.0
20180419094148 19 90 4.8 6.4 0.00 0.00 0.00 73 1013.0
20180419093946 18 270 0.0 6.4 0.00 0.00 0.00 73 1013.0
20180419093743 18 67 4.8 6.4 0.00 0.00 0.00 73 1013.1
20180419093542 18 67 3.2 4.8 0.00 0.00 0.00 74 1013.1
20180419093339 18 67 3.2 4.8 0.00 0.00 0.00 74 1013.1
20180419093138 18 67 0.0 3.2 0.00 0.00 0.00 74 1013.0
20180419092935 18 0 1.6 6.4 0.00 0.00 0.00 74 1013.1
20180419092734 18 90 3.2 6.4 0.00 0.00 0.00 74 1013.2
20180419092531 18 67 4.8 8.0 0.00 0.00 0.00 74 1013.2
20180419092329 18 270 3.2 8.0 0.00 0.00 0.00 74 1013.2
20180419092127 17 348 3.2 6.4 0.00 0.00 0.00 75 1013.1
20180419091933 17 67 3.2 6.4 0.00 0.00 0.00 75 1013.2
20180419091729 17 90 1.6 8.0 0.00 0.00 0.00 75 1013.2
20180419091532 17 67 3.2 8.0 0.00 0.00 0.00 74 1013.2
20180419091318 17 90 6.4 8.0 0.00 0.00 0.00 74 1013.2
20180419091117 17 67 6.4 6.4 0.00 0.00 0.00 75 1013.2
20180419090914 17 303 3.2 8.0 0.00 0.00 0.00 76 1013.2
20180419090713 17 67 6.4 8.0 0.00 0.00 0.00 75 1013.2
20180419090510 17 67 3.2 8.0 0.00 0.00 0.00 76 1013.3
20180419090309 17 67 3.2 8.0 0.00 0.00 0.00 76 1013.3
20180419090106 17 33 4.8 4.8 0.00 0.00 0.00 76 1013.3
20180419085905 16 22 1.6 4.8 0.00 0.00 0.00 77 1013.3
20180419085702 16 303 0.0 6.4 0.00 0.00 0.00 78 1013.2
20180419085500 16 0 4.8 6.4 0.00 0.00 0.00 78 1013.2
20180419085258 16 33 4.8 6.4 0.00 0.00 0.00 77 1013.3
20180419085056 16 90 4.8 6.4 0.00 0.00 0.00 77 1013.2
20180419084854 16 0 1.6 8.0 0.00 0.00 0.00 78 1013.2
20180419084652 16 33 4.8 8.0 0.00 0.00 0.00 78 1013.2
20180419084450 16 33 3.2 8.0 0.00 0.00 0.00 79 1013.3
20180419084248 16 270 1.6 8.0 0.00 0.00 0.00 79 1013.3
20180419084045 16 67 3.2 8.0 0.00 0.00 0.00 80 1013.3
20180419083844 15 67 3.2 8.0 0.00 0.00 0.00 80 1013.3
20180419083641 15 67 6.4 9.7 0.00 0.00 0.00 80 1013.3
20180419083440 15 67 1.6 9.7 0.00 0.00 0.00 81 1013.4
20180419083237 15 270 4.8 8.0 0.00 0.00 0.00 82 1013.3
20180419083036 15 270 1.6 8.0 0.00 0.00 0.00 83 1013.4
20180419082833 15 67 3.2 6.4 0.00 0.00 0.00 83 1013.3
20180419082631 15 0 3.2 6.4 0.00 0.00 0.00 84 1013.4
20180419082429 15 67 3.2 6.4 0.00 0.00 0.00 85 1013.5
20180419082227 14 33 6.4 6.4 0.00 0.00 0.00 84 1013.4
20180419082025 14 67 1.6 6.4 0.00 0.00 0.00 87 1013.4
20180419081823 14 67 1.6 6.4 0.00 0.00 0.00 88 1013.5
20180419081621 13 67 3.2 6.4 0.00 0.00 0.00 90 1013.5
20180419081419 13 67 3.2 6.4 0.00 0.00 0.00 91 1013.5
20180419081217 13 67 3.2 4.8 0.00 0.00 0.00 94 1013.4
20180419081015 13 67 0.0 4.8 0.00 0.00 0.00 95 1013.5
20180419080812 12 67 1.6 4.8 0.00 0.00 0.00 97 1013.5
20180419080611 12 67 3.2 3.2 0.00 0.00 0.00 98 1013.5
20180419080408 12 0 0.0 1.6 0.00 0.00 0.00 100 1013.6
20180419080207 12 270 1.6 1.6 0.00 0.00 0.00 100 1013.4
20180419080004 11 67 0.0 1.6 0.00 0.00 0.00 100 1013.4
20180419075803 11 270 1.6 1.6 0.00 0.00 0.00 100 1013.5
20180419075600 11 67 0.0 0.0 0.00 0.00 0.00 100 1013.5
20180419075358 11 67 0.0 1.6 0.00 0.00 0.00 100 1013.4
20180419075156 10 67 0.0 1.6 0.00 0.00 0.00 100 1013.6
20180419074954 10 67 0.0 1.6 0.00 0.00 0.00 100 1013.6
20180419074752 10 67 1.6 3.2 0.00 0.00 0.00 100 1013.5
20180419074550 10 67 1.6 3.2 0.00 0.00 0.00 100 1013.6
20180419074349 10 67 1.6 1.6 0.00 0.00 0.00 100 1013.5
20180419074146 10 67 0.0 0.0 0.00 0.00 0.00 100 1013.5
20180419073943 9 67 0.0 1.6 0.00 0.00 0.00 100 1013.5
20180419073742 9 67 0.0 1.6 0.00 0.00 0.00 99 1013.5
20180419073539 9 67 0.0 3.2 0.00 0.00 0.00 100 1013.5
20180419073338 9 67 0.0 3.2 0.00 0.00 0.00 99 1013.5
20180419073135 8 67 0.0 0.0 0.00 0.00 0.00 99 1013.4
20180419072933 8 67 0.0 1.6 0.00 0.00 0.00 98 1013.5
20180419072731 8 67 0.0 1.6 0.00 0.00 0.00 99 1013.5
20180419072529 8 67 0.0 1.6 0.00 0.00 0.00 99 1013.5
20180419072327 8 67 0.0 0.0 0.00 0.00 0.00 98 1013.4
20180419072125 8 67 0.0 0.0 0.00 0.00 0.00 97 1013.5
20180419071923 8 67 0.0 0.0 0.00 0.00 0.00 98 1013.6
20180419071721 8 67 0.0 0.0 0.00 0.00 0.00 97 1013.5
20180419071519 8 67 0.0 0.0 0.00 0.00 0.00 98 1013.5
20180419071317 8 67 0.0 0.0 0.00 0.00 0.00 98 1013.5
20180419071114 8 180 0.0 0.0 0.00 0.00 0.00 98 1013.5
20180419070913 8 270 0.0 0.0 0.00 0.00 0.00 98 1013.4
20180419070711 8 292 0.0 0.0 0.00 0.00 0.00 98 1013.4
20180419070509 8 0 0.0 0.0 0.00 0.00 0.00 97 1013.4
20180419064650 8 180 0.0 0.0 0.00 0.00 0.00 95 1013.5
20180419064448 8 180 0.0 0.0 0.00 0.00 0.00 96 1013.5
20180419064245 8 180 0.0 0.0 0.00 0.00 0.00 96 1013.5
20180419064044 8 180 0.0 0.0 0.00 0.00 0.00 96 1013.5
20180419063841 8 270 0.0 0.0 0.00 0.00 0.00 96 1013.5
20180419063640 8 270 0.0 0.0 0.00 0.00 0.00 96 1013.5
20180419063233 8 45 0.0 3.2 0.00 0.00 0.00 96 1013.5
20180419063030 8 135 0.0 3.2 0.00 0.00 0.00 97 1013.4
20180419062828 8 180 0.0 0.0 0.00 0.00 0.00 96 1013.4
20180419062626 8 67 0.0 0.0 0.00 0.00 0.00 96 1013.4
20180419062425 8 67 0.0 0.0 0.00 0.00 0.00 96 1013.4
20180419062222 8 67 0.0 0.0 0.00 0.00 0.00 96 1013.5
20180419062020 8 67 0.0 0.0 0.00 0.00 0.00 96 1013.5
20180419061818 8 67 0.0 0.0 0.00 0.00 0.00 96 1013.4
20180419061616 8 67 0.0 0.0 0.00 0.00 0.00 96 1013.4
20180419061414 8 67 0.0 0.0 0.00 0.00 0.00 95 1013.4
20180419061212 8 67 0.0 0.0 0.00 0.00 0.00 95 1013.3
20180419061009 8 67 0.0 0.0 0.00 0.00 0.00 94 1013.4
20180419060808 8 67 0.0 0.0 0.00 0.00 0.00 95 1013.3
20180419060605 8 180 0.0 0.0 0.00 0.00 0.00 95 1013.3
20180419060404 8 180 0.0 0.0 0.00 0.00 0.00 95 1013.3
20180419060201 8 180 0.0 0.0 0.00 0.00 0.00 94 1013.2
20180419060000 8 180 0.0 0.0 0.00 0.00 0.00 95 1013.3
20180419055757 8 180 0.0 0.0 0.00 0.00 0.00 95 1013.2
20180419055555 8 90 0.0 0.0 0.00 0.00 0.00 95 1013.2
20180419055353 8 90 0.0 0.0 0.00 0.00 0.00 94 1013.2
20180419055151 8 0 0.0 0.0 0.00 0.00 0.00 94 1013.2
20180419054949 8 90 0.0 0.0 0.00 0.00 0.00 93 1013.1
20180419054747 8 67 0.0 0.0 0.00 0.00 0.00 93 1013.1
20180419054545 8 270 0.0 0.0 0.00 0.00 0.00 93 1013.1
20180419054343 8 270 0.0 0.0 0.00 0.00 0.00 93 1013.1
20180419054140 8 270 0.0 0.0 0.00 0.00 0.00 93 1012.9
20180419053939 8 270 0.0 0.0 0.00 0.00 0.00 92 1013.0
20180419053736 8 270 0.0 0.0 0.00 0.00 0.00 92 1012.9
20180419053535 8 270 0.0 0.0 0.00 0.00 0.00 93 1012.9
20180419053332 8 270 0.0 0.0 0.00 0.00 0.00 93 1012.9
20180419053131 8 0 0.0 0.0 0.00 0.00 0.00 93 1012.8
20180419052928 8 0 0.0 0.0 0.00 0.00 0.00 93 1012.9
20180419052726 8 0 0.0 0.0 0.00 0.00 0.00 93 1012.9
20180419052524 8 0 0.0 0.0 0.00 0.00 0.00 93 1012.8
20180419052322 8 0 0.0 0.0 0.00 0.00 0.00 93 1012.8
20180419052120 8 0 0.0 0.0 0.00 0.00 0.00 93 1012.8
20180419051918 8 0 0.0 0.0 0.00 0.00 0.00 93 1012.8
20180419051716 8 45 0.0 0.0 0.00 0.00 0.00 93 1012.7
20180419051514 8 45 0.0 0.0 0.00 0.00 0.00 93 1012.8
20180419051311 8 45 0.0 0.0 0.00 0.00 0.00 93 1012.9
20180419051110 8 45 0.0 0.0 0.00 0.00 0.00 93 1012.9
20180419050907 8 45 0.0 0.0 0.00 0.00 0.00 93 1012.8
20180419050706 8 45 0.0 0.0 0.00 0.00 0.00 93 1012.9
20180419050503 8 45 0.0 0.0 0.00 0.00 0.00 93 1013.0
20180419050302 8 45 0.0 0.0 0.00 0.00 0.00 93 1012.8
20180419050059 8 45 0.0 0.0 0.00 0.00 0.00 92 1012.9
20180419045857 8 45 0.0 0.0 0.00 0.00 0.00 92 1012.8
20180419045655 8 45 0.0 0.0 0.00 0.00 0.00 92 1012.9
20180419045453 8 45 0.0 0.0 0.00 0.00 0.00 92 1012.9
20180419045251 8 45 0.0 0.0 0.00 0.00 0.00 92 1012.9
20180419045049 8 0 0.0 0.0 0.00 0.00 0.00 91 1012.9
20180419044847 8 0 0.0 0.0 0.00 0.00 0.00 90 1012.9
20180419044645 8 0 0.0 0.0 0.00 0.00 0.00 90 1012.9
20180419044442 8 67 0.0 0.0 0.00 0.00 0.00 90 1012.9
20180419044241 8 67 0.0 0.0 0.00 0.00 0.00 89 1012.9
20180419044038 8 67 0.0 0.0 0.00 0.00 0.00 88 1012.9
20180419043837 8 67 0.0 0.0 0.00 0.00 0.00 88 1013.0
20180419043634 8 67 0.0 0.0 0.00 0.00 0.00 88 1012.9
20180419043433 8 67 0.0 0.0 0.00 0.00 0.00 88 1012.9
20180419043230 8 67 0.0 0.0 0.00 0.00 0.00 88 1012.9
20180419043029 9 67 0.0 0.0 0.00 0.00 0.00 88 1012.9
20180419042826 9 67 0.0 0.0 0.00 0.00 0.00 88 1013.0
20180419042624 9 67 0.0 0.0 0.00 0.00 0.00 88 1012.9
20180419042422 9 67 0.0 0.0 0.00 0.00 0.00 88 1012.9
20180419042220 9 67 0.0 0.0 0.00 0.00 0.00 87 1013.0
20180419042018 9 67 0.0 0.0 0.00 0.00 0.00 88 1013.0
20180419041816 9 67 0.0 0.0 0.00 0.00 0.00 87 1013.0
20180419041613 10 67 0.0 0.0 0.00 0.00 0.00 87 1013.1
20180419041412 10 0 0.0 0.0 0.00 0.00 0.00 87 1013.0
20180419041209 10 0 0.0 0.0 0.00 0.00 0.00 87 1013.0
20180419041008 10 270 0.0 0.0 0.00 0.00 0.00 88 1013.1
20180419040805 10 270 0.0 0.0 0.00 0.00 0.00 87 1013.2
20180419040603 10 0 0.0 0.0 0.00 0.00 0.00 87 1013.0
20180419040401 10 0 0.0 0.0 0.00 0.00 0.00 87 1013.1
20180419035957 10 0 0.0 0.0 0.00 0.00 0.00 87 1013.1
20180419035755 10 45 0.0 0.0 0.00 0.00 0.00 87 1013.0
20180419035553 10 45 0.0 0.0 0.00 0.00 0.00 87 1013.1
20180419035351 10 45 0.0 0.0 0.00 0.00 0.00 88 1013.2
20180419035149 10 0 0.0 0.0 0.00 0.00 0.00 88 1013.2
20180419034947 10 0 0.0 0.0 0.00 0.00 0.00 87 1013.2
20180419034744 10 0 0.0 0.0 0.00 0.00 0.00 87 1013.2
20180419034543 10 0 0.0 0.0 0.00 0.00 0.00 87 1013.3
20180419034340 10 0 0.0 0.0 0.00 0.00 0.00 87 1013.3
20180419034139 10 0 0.0 0.0 0.00 0.00 0.00 87 1013.4
20180419033936 10 0 0.0 0.0 0.00 0.00 0.00 87 1013.3
20180419033734 10 0 0.0 0.0 0.00 0.00 0.00 87 1013.3
20180419033331 10 0 0.0 0.0 0.00 0.00 0.00 88 1013.4
20180419033128 10 0 0.0 0.0 0.00 0.00 0.00 87 1013.3
20180419032926 10 0 0.0 0.0 0.00 0.00 0.00 88 1013.3
20180419032724 10 0 0.0 0.0 0.00 0.00 0.00 88 1013.3
20180419032522 10 0 0.0 0.0 0.00 0.00 0.00 88 1013.5
20180419032319 10 0 0.0 0.0 0.00 0.00 0.00 87 1013.4
20180419032118 10 67 0.0 0.0 0.00 0.00 0.00 87 1013.5
20180419031915 10 0 0.0 0.0 0.00 0.00 0.00 88 1013.5
20180419031714 10 45 0.0 0.0 0.00 0.00 0.00 87 1013.5
20180419031511 10 45 0.0 0.0 0.00 0.00 0.00 87 1013.5
20180419031310 10 0 0.0 0.0 0.00 0.00 0.00 87 1013.6
20180419031107 10 0 0.0 0.0 0.00 0.00 0.00 87 1013.5
20180419030906 10 0 0.0 0.0 0.00 0.00 0.00 87 1013.6
20180419030706 10 0 0.0 0.0 0.00 0.00 0.00 86 1013.6
20180419030501 10 0 0.0 0.0 0.00 0.00 0.00 86 1013.6
20180419030259 10 0 0.0 0.0 0.00 0.00 0.00 86 1013.6
20180419030057 10 0 0.0 0.0 0.00 0.00 0.00 86 1013.6
20180419025855 10 0 0.0 0.0 0.00 0.00 0.00 86 1013.7
20180419025653 10 0 0.0 0.0 0.00 0.00 0.00 86 1013.7
20180419025450 10 0 0.0 0.0 0.00 0.00 0.00 86 1013.7
20180419025249 10 0 0.0 0.0 0.00 0.00 0.00 86 1013.8
20180419025046 10 270 0.0 0.0 0.00 0.00 0.00 86 1013.8
20180419024642 10 45 0.0 0.0 0.00 0.00 0.00 86 1013.7
20180419024441 10 45 0.0 0.0 0.00 0.00 0.00 86 1013.8
20180419024238 10 45 0.0 0.0 0.00 0.00 0.00 85 1013.7
20180419024036 10 45 0.0 0.0 0.00 0.00 0.00 85 1013.8
20180419023834 10 45 0.0 0.0 0.00 0.00 0.00 85 1013.8
20180419023632 10 45 0.0 0.0 0.00 0.00 0.00 86 1013.9
20180419023430 10 45 0.0 0.0 0.00 0.00 0.00 85 1013.8
20180419023228 10 45 0.0 0.0 0.00 0.00 0.00 85 1013.8
20180419023026 10 45 0.0 0.0 0.00 0.00 0.00 85 1013.8
20180419022824 10 45 0.0 0.0 0.00 0.00 0.00 85 1013.8
20180419022622 10 45 0.0 0.0 0.00 0.00 0.00 85 1013.9
20180419022420 10 45 0.0 0.0 0.00 0.00 0.00 85 1013.9
20180419021808 11 45 0.0 0.0 0.00 0.00 0.00 85 1013.8
20180419021607 11 45 0.0 0.0 0.00 0.00 0.00 85 1014.0
20180419021404 11 45 0.0 0.0 0.00 0.00 0.00 85 1014.0
20180419021203 11 45 0.0 0.0 0.00 0.00 0.00 84 1013.9
20180419021000 11 45 0.0 0.0 0.00 0.00 0.00 84 1014.0
20180419020758 11 45 0.0 0.0 0.00 0.00 0.00 85 1014.0
20180419020556 11 45 0.0 0.0 0.00 0.00 0.00 84 1014.1
20180419020354 11 45 0.0 0.0 0.00 0.00 0.00 84 1014.1
20180419020152 11 45 0.0 0.0 0.00 0.00 0.00 84 1014.0
20180419015950 11 45 0.0 0.0 0.00 0.00 0.00 84 1014.0
20180419015546 11 45 0.0 0.0 0.00 0.00 0.00 84 1013.9
20180419015343 11 45 0.0 0.0 0.00 0.00 0.00 83 1014.0
20180419015142 11 45 0.0 0.0 0.00 0.00 0.00 83 1014.0
20180419014939 11 90 0.0 0.0 0.00 0.00 0.00 83 1014.0
20180419014738 11 0 0.0 0.0 0.00 0.00 0.00 83 1014.1
20180419014535 11 0 0.0 0.0 0.00 0.00 0.00 83 1014.1
20180419014334 11 0 0.0 0.0 0.00 0.00 0.00 83 1014.1
20180419014131 11 67 0.0 0.0 0.00 0.00 0.00 83 1014.0
20180419013929 11 0 0.0 0.0 0.00 0.00 0.00 83 1014.1
20180419013727 11 0 0.0 0.0 0.00 0.00 0.00 83 1014.1
20180419013525 11 0 0.0 0.0 0.00 0.00 0.00 83 1014.2
20180419013323 11 0 0.0 0.0 0.00 0.00 0.00 82 1014.1
20180419013121 11 0 0.0 0.0 0.00 0.00 0.00 82 1014.1
20180419012919 11 0 0.0 0.0 0.00 0.00 0.00 82 1014.2
20180419012717 11 67 0.0 0.0 0.00 0.00 0.00 82 1014.2
20180419012514 11 67 0.0 0.0 0.00 0.00 0.00 82 1014.2
20180419012313 11 67 0.0 0.0 0.00 0.00 0.00 82 1014.3
20180419012110 11 67 0.0 0.0 0.00 0.00 0.00 82 1014.3
20180419011909 11 67 0.0 0.0 0.00 0.00 0.00 82 1014.3
20180419011706 11 45 0.0 0.0 0.00 0.00 0.00 82 1014.3
20180419011505 11 45 0.0 0.0 0.00 0.00 0.00 82 1014.3
20180419011302 11 45 0.0 0.0 0.00 0.00 0.00 82 1014.3
20180419011100 11 0 0.0 0.0 0.00 0.00 0.00 82 1014.3
20180419010858 11 0 0.0 0.0 0.00 0.00 0.00 82 1014.4
20180419010656 11 0 0.0 0.0 0.00 0.00 0.00 82 1014.4
20180419010454 11 0 0.0 0.0 0.00 0.00 0.00 81 1014.4
20180419010252 11 0 0.0 0.0 0.00 0.00 0.00 81 1014.4
20180419010050 11 0 0.0 0.0 0.00 0.00 0.00 80 1014.5
20180419005848 11 0 0.0 0.0 0.00 0.00 0.00 80 1014.5
20180419005646 11 0 0.0 0.0 0.00 0.00 0.00 80 1014.4
20180419005444 11 0 0.0 0.0 0.00 0.00 0.00 79 1014.5
20180419005241 11 0 0.0 0.0 0.00 0.00 0.00 79 1014.5
20180419005040 11 0 0.0 0.0 0.00 0.00 0.00 78 1014.6
20180419004636 12 0 0.0 0.0 0.00 0.00 0.00 77 1014.6
20180419004433 12 0 0.0 0.0 0.00 0.00 0.00 77 1014.6
20180419004231 12 0 0.0 0.0 0.00 0.00 0.00 77 1014.7
20180419004029 12 135 0.0 0.0 0.00 0.00 0.00 76 1014.6
20180419003827 12 135 0.0 1.6 0.00 0.00 0.00 76 1014.6
20180419003625 12 45 0.0 1.6 0.00 0.00 0.00 75 1014.7
20180419003423 12 45 0.0 0.0 0.00 0.00 0.00 74 1014.7
20180419003221 12 45 0.0 1.6 0.00 0.00 0.00 74 1014.7
20180419003019 12 135 0.0 1.6 0.00 0.00 0.00 74 1014.7
20180419002816 12 135 0.0 0.0 0.00 0.00 0.00 73 1014.7
20180419002615 12 112 0.0 0.0 0.00 0.00 0.00 73 1014.7
20180419002412 13 0 0.0 0.0 0.00 0.00 0.00 72 1014.6
20180419002211 13 0 0.0 0.0 0.00 0.00 0.00 72 1014.7
20180419002008 13 292 0.0 1.6 0.00 0.00 0.00 71 1014.7
20180419001807 13 67 0.0 1.6 0.00 0.00 0.00 71 1014.8
20180419001604 13 135 0.0 0.0 0.00 0.00 0.00 70 1014.7
20180419001402 13 292 0.0 1.6 0.00 0.00 0.00 70 1014.6
20180419001200 13 67 0.0 1.6 0.00 0.00 0.00 70 1014.7
20180419000958 13 270 0.0 0.0 0.00 0.00 0.00 70 1014.7
20180419000756 13 22 0.0 0.0 0.00 0.00 0.00 69 1014.8
20180419000554 13 90 0.0 0.0 0.00 0.00 0.00 70 1014.8
20180419000352 13 67 0.0 3.2 0.00 0.00 0.00 70 1014.7
20180419000150 13 270 0.0 3.2 0.00 0.00 0.00 69 1014.7
20180418235947 13 33 1.6 1.6 0.00 0.00 0.00 70 1014.7
20180418235746 13 270 0.0 0.0 0.00 0.00 0.00 70 1014.7
20180418235543 13 67 0.0 1.6 0.00 0.00 0.00 70 1014.7
20180418235342 13 67 0.0 1.6 0.00 0.00 0.00 70 1014.8
20180418235139 13 292 0.0 0.0 0.00 0.00 0.00 70 1014.7
20180418234938 13 135 0.0 1.6 0.00 0.00 0.00 70 1014.7
20180418234735 13 315 0.0 4.8 0.00 0.00 0.00 70 1014.7
20180418234533 13 67 0.0 4.8 0.00 0.00 0.00 70 1014.7
20180418234331 13 292 1.6 3.2 0.00 0.00 0.00 70 1014.7
20180418234129 13 180 0.0 3.2 0.00 0.00 0.00 70 1014.6
20180418233927 13 270 1.6 3.2 0.00 0.00 0.00 70 1014.7
20180418233725 13 180 0.0 3.2 0.00 0.00 0.00 70 1014.7
20180418233523 13 270 0.0 1.6 0.00 0.00 0.00 70 1014.7
20180418233321 13 270 0.0 6.4 0.00 0.00 0.00 70 1014.7
20180418233118 13 33 0.0 6.4 0.00 0.00 0.00 70 1014.8
20180418232917 13 180 1.6 1.6 0.00 0.00 0.00 70 1014.7
20180418232714 13 180 0.0 0.0 0.00 0.00 0.00 70 1014.7
20180418232513 13 180 0.0 0.0 0.00 0.00 0.00 70 1014.7
20180418232310 13 270 0.0 1.6 0.00 0.00 0.00 70 1014.8
20180418232109 13 270 0.0 1.6 0.00 0.00 0.00 70 1014.7
20180418231907 14 315 0.0 1.6 0.00 0.00 0.00 70 1014.7
20180418231704 14 315 1.6 1.6 0.00 0.00 0.00 70 1014.7
20180418231502 14 180 0.0 1.6 0.00 0.00 0.00 70 1014.8
20180418231300 14 101 1.6 3.2 0.00 0.00 0.00 69 1014.7
20180418231058 14 146 0.0 4.8 0.00 0.00 0.00 70 1014.8
20180418230856 14 180 0.0 4.8 0.00 0.00 0.00 69 1014.8
20180418230654 14 135 1.6 4.8 0.00 0.00 0.00 70 1014.7
20180418230452 14 90 1.6 4.8 0.00 0.00 0.00 69 1014.8
20180418230250 14 135 1.6 3.2 0.00 0.00 0.00 70 1014.9
20180418230048 14 135 0.0 3.2 0.00 0.00 0.00 70 1014.9
20180418225845 14 180 0.0 1.6 0.00 0.00 0.00 69 1014.8
20180418225644 14 180 0.0 1.6 0.00 0.00 0.00 70 1014.9
20180418225441 14 315 0.0 3.2 0.00 0.00 0.00 70 1014.9
20180418225240 14 112 1.6 3.2 0.00 0.00 0.00 69 1014.9
20180418225037 14 135 0.0 1.6 0.00 0.00 0.00 69 1014.8
20180418224633 14 135 0.0 3.2 0.00 0.00 0.00 69 1015.0
20180418224431 14 67 1.6 3.2 0.00 0.00 0.00 69 1014.9
20180418224229 14 90 1.6 3.2 0.00 0.00 0.00 69 1015.0
20180418224027 14 112 1.6 3.2 0.00 0.00 0.00 69 1014.8
20180418223623 14 180 1.6 1.6 0.00 0.00 0.00 69 1014.9
20180418223421 14 168 0.0 1.6 0.00 0.00 0.00 69 1015.0
20180418222208 15 67 0.0 6.4 0.00 0.00 0.00 69 1015.1